[[{"header":{"parameterUnit":"m.s-1","parameterCategory":1,"la1":30.2991,"la2":30.254,"lo1":-89.0895,"lo2":-89.0444,"dy":0.0017,"dx":0.0017,"nx":28,"ny":28,"refTime":"2026-02-17T09:00:00:Z","depth":0,"parameterNumber":2,"parameterNumberName":"U-component_of_WINDS"},"data":[0,0,0,0,0,0,0,0,0,0,0,0,0,0,0,0,0,0,0,0,0,0,0,0,0,0,0,0,0,0,0,0,0,0,0,0,0,0,0,0,0,0,0,0,0,0,0,0,0,0,0,0,0,0,0,0,0,0,0.1302,0.1303,0,0.1388,0.1389,0.139,0.1447,0.1447,0.1447,0.1448,0.1534,0.1536,0.1538,0,0,0,0,0,0,0,0,0,0,0,0,0,0.1185,0.1187,0.1302,0.1303,0.1304,0.1387,0.1389,0.139,0.1447,0.1447,0.1448,0.1448,0.1533,0.1536,0.1538,0,0,0,0,0,0,0,0,0,0,0,0,0,0.125,0.1188,0.1301,0.1342,0.1347,0.1387,0.1389,0.139,0.1447,0.1447,0.1448,0.1448,0.1533,0.1535,0.1538,0.1544,0,0,0.1547,0.1548,0,0,0,0,0,0,0,0,0.1246,0.1254,0.1335,0.1339,0.1345,0.1407,0.1379,0.1442,0.1446,0.1409,0.1448,0.1449,0.1491,0.1498,0.1512,0.1548,0.1552,0.1547,0.1549,0.155,0.1551,0,0,0,0,0,0,0,0.1241,0.1251,0.1336,0.1336,0.1342,0.1356,0.1366,0.1391,0.1445,0.1412,0.1416,0.1426,0.1494,0.1509,0.1515,0.1553,0.1547,0.155,0.1552,0.1553,0.1599,0.1599,0,0,0,0,0,0,0.1231,0.1246,0.1333,0.1338,0.1296,0.1357,0.1368,0.1386,0.1445,0.1455,0.1425,0.1428,0.1504,0.1511,0.1518,0.1529,0.155,0.1553,0.1555,0.16,0.1599,0.1599,0,0,0,0,0,0,0.1228,0.1238,0.1329,0.1294,0.1306,0.1359,0.1379,0.1388,0.1403,0.1455,0.1465,0.1431,0.1505,0.1514,0.1538,0.1533,0.1554,0.1557,0.1601,0.16,0.1599,0.1551,0,0,0,0,0,0,0.1224,0.1237,0.124,0.1293,0.1308,0.1348,0.1378,0.1389,0.1408,0.1413,0.1464,0.1473,0.1506,0.1533,0.1541,0.1537,0.1559,0.1601,0.16,0.1599,0.1553,0.1549,0.1545,0,0,0,0,0,0.122,0.1222,0.124,0.125,0.1313,0.1347,0.1356,0.1395,0.1408,0.1411,0.1445,0.1471,0.1532,0.1535,0.1544,0.1541,0.1602,0.1601,0.1599,0.1555,0.155,0.1545,0,0,0,0,0,0,0.1166,0.123,0.125,0.1269,0.1303,0.1357,0.1362,0.1388,0.1417,0.142,0.1467,0.1478,0.1497,0.1522,0.1523,0.1551,0.157,0.1571,0.1534,0.1529,0.1525,0.1518,0.1562,0,0,0,0,0,0.1156,0.1179,0.1234,0.1246,0.1262,0.1309,0.1325,0.1353,0.1389,0.1403,0.1438,0.1472,0.1499,0.1515,0.1543,0.1558,0.1569,0.1561,0.1556,0.1553,0.1552,0.1562,0.1559,0.1595,0.1595,0.1595,0,0,0.1136,0.1174,0.1186,0.1236,0.1265,0.1287,0.132,0.1343,0.136,0.1406,0.1431,0.1458,0.1498,0.1518,0.1528,0.1539,0.1545,0.1551,0.1548,0.155,0.1561,0.1557,0.1554,0.1594,0.1595,0.1595,0,0,0.1111,0.1143,0.1156,0.1185,0.1229,0.126,0.1263,0.1314,0.1334,0.136,0.1396,0.1417,0.1462,0.1489,0.1509,0.1496,0.1521,0.1504,0.1481,0.149,0.1488,0.1485,0.148,0.1478,0.1504,0.1503,0.1503,0,0.1081,0.1117,0.116,0.118,0.1201,0.1246,0.1259,0.1285,0.1335,0.1348,0.136,0.1419,0.1449,0.1475,0.1472,0.1487,0.1492,0.1498,0.1485,0.1483,0.1481,0.1477,0.1475,0.1501,0.1501,0.1502,0.1502,0,0.1077,0.1101,0.1107,0.1155,0.1177,0.1193,0.1239,0.1256,0.1282,0.1312,0.1338,0.1376,0.1412,0.1421,0.1446,0.1451,0.1456,0.1476,0.1496,0.1474,0.1471,0.147,0.1497,0.1498,0.1499,0.15,0,0,0.1018,0.1091,0.1093,0.1115,0.1167,0.1187,0.1206,0.1242,0.1256,0.1289,0.1306,0.1344,0.1363,0.1385,0.1414,0.1422,0.1409,0.1441,0.1443,0.1433,0.1417,0.1401,0.1398,0.1426,0.1426,0.1426,0.1413,0,0.1001,0.1038,0.1078,0.1101,0.1124,0.1167,0.1183,0.1217,0.1246,0.127,0.1302,0.1328,0.1351,0.1365,0.1375,0.1408,0.1406,0.141,0.1442,0.1443,0.1429,0.1397,0.138,0.1366,0.1412,0.1412,0.1412,0,0.0985,0.1017,0.1042,0.1093,0.1104,0.1118,0.1155,0.1177,0.1217,0.1237,0.1263,0.1294,0.1316,0.1335,0.1366,0.1367,0.1383,0.1402,0.1402,0.1406,0.1425,0.1399,0.1362,0.1359,0.141,0.141,0.141,0,0.0939,0.0989,0.1011,0.1029,0.1089,0.1098,0.1123,0.1163,0.1182,0.1215,0.1228,0.1262,0.128,0.1306,0.1345,0.1355,0.1372,0.1393,0.1389,0.1388,0.1389,0.1388,0.1354,0.1401,0.1401,0.1401,0.1401,0,0.0914,0.0928,0.0991,0.1004,0.1021,0.1067,0.1082,0.1111,0.1146,0.1166,0.1205,0.1222,0.1274,0.1297,0.1328,0.1349,0.1357,0.1374,0.1382,0.137,0.1368,0.138,0.1382,0.14,0.14,0.1401,0.1401,0,0.0865,0.0908,0.0934,0.099,0.1004,0.1014,0.1061,0.1075,0.1107,0.1131,0.1139,0.1189,0.1219,0.1261,0.1303,0.1324,0.134,0.1354,0.1327,0.1332,0.1325,0.1324,0.1296,0.1294,0.1342,0.1342,0.1341,0,0.0846,0.0858,0.0915,0.0931,0.0955,0.0981,0.1001,0.1047,0.1067,0.1113,0.1122,0.1155,0.1183,0.1229,0.1268,0.1301,0.1315,0.1303,0.132,0.1308,0.1314,0.1312,0.1314,0.1298,0.1297,0.1297,0.1296,0,0.0808,0.0829,0.0857,0.0893,0.0917,0.0947,0.0979,0.099,0.1043,0.1063,0.1094,0.1116,0.116,0.1192,0.1231,0.1257,0.1285,0.1291,0.1291,0.1279,0.1263,0.1271,0.1315,0.1291,0.1291,0.1292,0.1292,0.1292,0.0773,0.0785,0.0827,0.0858,0.0887,0.0916,0.0933,0.0968,0.0995,0.1034,0.106,0.109,0.113,0.1184,0.1209,0.1233,0.1244,0.1245,0.1245,0.1244,0.124,0.126,0.124,0.124,0.124,0.124,0.1241,0,0.0735,0.0765,0.0793,0.0837,0.0861,0.0887,0.0925,0.0942,0.0969,0.1004,0.1031,0.1068,0.1099,0.1142,0.1177,0.1188,0.1201,0.1195,0.1194,0.1199,0.1228,0.1224,0.1183,0.1183,0.1183,0.1183,0.1183,0.1183,0.0719,0.0741,0.0767,0.0805,0.0835,0.0865,0.0884,0.0911,0.094,0.0978,0.1005,0.1033,0.1072,0.111,0.114,0.1152,0.1162,0.1151,0.1167,0.1192,0.1197,0.1202,0.1199,0.1154,0.1154,0.1137,0.1137,0.1136]},{"header":{"parameterUnit":"m.s-1","parameterCategory":1,"la1":30.2991,"la2":30.254,"lo1":-89.0895,"lo2":-89.0444,"dy":0.0017,"dx":0.0017,"nx":28,"ny":28,"refTime":"2026-02-17T09:00:00:Z","depth":0,"parameterNumber":3,"parameterNumberName":"V-component_of_WINDS"},"data":[0,0,0,0,0,0,0,0,0,0,0,0,0,0,0,0,0,0,0,0,0,0,0,0,0,0,0,0,0,0,0,0,0,0,0,0,0,0,0,0,0,0,0,0,0,0,0,0,0,0,0,0,0,0,0,0,0,0,1.9816,1.9816,0,1.9875,1.9876,1.9877,1.9869,1.9868,1.9867,1.9866,1.9924,1.9927,1.9929,0,0,0,0,0,0,0,0,0,0,0,0,0,1.9692,1.9694,1.9816,1.9816,1.9817,1.9875,1.9876,1.9877,1.9869,1.9868,1.9867,1.9866,1.9924,1.9926,1.9929,0,0,0,0,0,0,0,0,0,0,0,0,0,1.9748,1.9695,1.9815,1.982,1.9822,1.9875,1.9876,1.9877,1.987,1.9868,1.9867,1.9865,1.9923,1.9926,1.993,1.9981,0,0,1.9941,1.9943,0,0,0,0,0,0,0,0,1.9745,1.9752,1.9819,1.982,1.9821,1.9863,1.9854,1.9912,1.987,1.9851,1.9866,1.9865,1.9905,1.991,1.9924,1.9984,1.9986,1.9941,1.9943,1.9945,1.9946,0,0,0,0,0,0,0,1.9741,1.975,1.9839,1.982,1.9821,1.9819,1.9825,1.9865,1.9885,1.9853,1.9852,1.986,1.9905,1.9921,1.9926,1.9987,1.9941,1.9944,1.9947,1.9948,2.0091,2.0093,0,0,0,0,0,0,1.9736,1.9747,1.9837,1.9841,1.9779,1.9822,1.9829,1.9851,1.9885,1.9889,1.9861,1.9859,1.9915,1.9921,1.9928,1.999,1.9945,1.9948,1.9951,2.009,2.0092,2.0093,0,0,0,0,0,0,1.9734,1.9744,1.9835,1.9794,1.9805,1.9826,1.9851,1.9853,1.9869,1.9891,1.9894,1.9873,1.9914,1.9922,1.9968,1.9992,1.995,1.9953,2.0088,2.009,2.0092,2.0114,0,0,0,0,0,0,1.973,1.9743,1.9764,1.9794,1.9807,1.9875,1.9852,1.9856,1.9875,1.9874,1.9903,1.9907,1.9914,1.9963,1.9972,1.9996,1.9956,2.0086,2.0089,2.0092,2.0112,2.0117,2.0122,0,0,0,0,0,1.9726,1.9767,1.9765,1.9776,1.9834,1.9877,1.9884,1.9892,1.9877,1.9898,1.9912,1.9906,1.9988,1.9967,1.9977,2.0003,2.0084,2.0088,2.0091,2.0109,2.0116,2.0122,0,0,0,0,0,0,1.9738,1.9771,1.9769,1.9822,1.9847,1.9875,1.9901,1.9899,1.9928,1.9925,1.9932,1.9939,1.9985,1.9999,1.9975,2.0054,2.0034,2.004,2.0044,2.005,2.0056,2.0051,1.9959,0,0,0,0,0,1.9747,1.9781,1.9807,1.9851,1.9864,1.9881,1.99,1.9904,1.9929,1.9939,1.9957,1.9981,2.0012,2.0032,2.0062,2.0114,2.0119,2.0136,2.0141,2.0145,2.015,2.0178,2.0185,2.0105,2.0105,2.0105,0,0,1.9766,1.9788,1.9809,1.9854,1.9874,1.9907,1.9889,1.9925,1.995,1.9944,1.9988,2.0002,2.0029,2.0078,2.0101,2.0091,2.0174,2.015,2.0153,2.0156,2.0182,2.019,2.0197,2.0108,2.0107,2.0107,0,0,1.9817,1.9838,1.9877,1.9897,1.9927,1.9938,1.9947,1.9976,1.9985,2.003,2.0026,2.0055,2.0108,2.0128,2.0144,2.0203,2.0198,2.0212,2.0239,2.0266,2.0272,2.0278,2.0298,2.0305,2.0217,2.0217,2.0217,0,1.9836,1.9888,1.9896,1.9933,1.9953,1.995,1.9989,2.0008,2.0046,2.0059,2.0048,2.0114,2.0132,2.0185,2.02,2.0214,2.0224,2.0208,2.0271,2.0276,2.0282,2.0301,2.0309,2.0218,2.0218,2.0218,2.0218,0,1.9909,1.9945,1.9972,2.001,2.0033,2.007,2.0083,2.0105,2.0107,2.0119,2.0164,2.0186,2.022,2.0232,2.0234,2.0286,2.0279,2.0269,2.0248,2.0291,2.0309,2.0316,2.022,2.022,2.0219,2.0219,0,0,1.997,2.0012,2.0022,2.0039,2.0072,2.0099,2.0136,2.017,2.0188,2.0214,2.0244,2.0289,2.0281,2.03,2.0304,2.0328,2.0371,2.0315,2.0316,2.0324,2.0428,2.0435,2.0443,2.0369,2.037,2.0371,2.0426,0,2.0024,2.009,2.0099,2.0157,2.019,2.0188,2.0219,2.0242,2.0254,2.0282,2.0294,2.0326,2.0313,2.0324,2.0348,2.0361,2.0392,2.0357,2.0396,2.0397,2.0389,2.0453,2.046,2.051,2.0433,2.0434,2.0435,0,2.0096,2.0125,2.0187,2.0215,2.0229,2.0257,2.0289,2.0316,2.0342,2.0348,2.037,2.0371,2.0408,2.0386,2.0436,2.0412,2.0428,2.0437,2.0439,2.0443,2.0418,2.0457,2.0527,2.0534,2.0446,2.0445,2.0445,0,2.0133,2.0188,2.0232,2.0246,2.028,2.03,2.0315,2.034,2.0359,2.0386,2.0399,2.043,2.0447,2.047,2.0479,2.0462,2.0528,2.0507,2.0534,2.0534,2.0547,2.0546,2.062,2.0559,2.0559,2.0559,2.0558,0,2.0193,2.023,2.0249,2.0276,2.0317,2.0327,2.0367,2.0381,2.0403,2.0431,2.0431,2.0458,2.0468,2.0496,2.0503,2.0543,2.0551,2.0556,2.0558,2.0556,2.0556,2.0567,2.0563,2.0561,2.056,2.056,2.0559,0,2.0241,2.0256,2.0303,2.0332,2.034,2.0369,2.0393,2.0418,2.043,2.0466,2.0475,2.0492,2.0525,2.0536,2.0576,2.058,2.0627,2.0625,2.0618,2.0619,2.0644,2.0641,2.0727,2.0738,2.067,2.0671,2.0671,0,2.0278,2.0307,2.0339,2.0359,2.0375,2.0406,2.0426,2.0436,2.0457,2.0488,2.051,2.0543,2.057,2.0622,2.0637,2.0667,2.0666,2.0694,2.0671,2.0668,2.0666,2.0664,2.0666,2.0698,2.0699,2.07,2.07,0,2.0341,2.0347,2.0377,2.0409,2.0434,2.0459,2.0484,2.05,2.0513,2.0536,2.0571,2.0592,2.0632,2.0664,2.0695,2.0709,2.0707,2.0707,2.0715,2.0713,2.0708,2.0711,2.063,2.0705,2.0705,2.0704,2.0704,2.0704,2.0385,2.041,2.0437,2.047,2.049,2.0513,2.0538,2.0553,2.0582,2.0616,2.062,2.0656,2.068,2.0721,2.0737,2.0765,2.0757,2.0768,2.0771,2.0773,2.0775,2.0704,2.077,2.077,2.077,2.077,2.077,0,2.0448,2.0465,2.0495,2.053,2.0556,2.0552,2.0579,2.0601,2.0633,2.0656,2.0683,2.0721,2.0753,2.0771,2.0801,2.082,2.082,2.0828,2.0826,2.0829,2.078,2.0771,2.0828,2.0828,2.0828,2.0828,2.0828,2.0828,2.0484,2.0526,2.0535,2.0587,2.0603,2.064,2.0655,2.0676,2.0695,2.0738,2.0765,2.0776,2.0797,2.0829,2.0857,2.0862,2.0873,2.0882,2.0885,2.0839,2.0833,2.0827,2.0818,2.0884,2.0884,2.0932,2.0932,2.0932]}]]